Date,TemperatureHighF,TemperatureAvgF,TemperatureLowF,DewpointHighF,DewpointAvgF,DewpointLowF,HumidityHigh,HumidityAvg,HumidityLow,PressureMaxIn,PressureMinIn,WindSpeedMaxMPH,WindSpeedAvgMPH,GustSpeedMaxMPH,PrecipitationSumIn
2013-11-1,50,43,37,39,37,31,93,82,64,29.83,29.40,8,2,10,0.00
2013-11-2,50,39,33,36,31,28,85,74,51,30.07,29.83,8,1,10,0.00
2013-11-3,54,44,33,37,33,28,84,66,46,30.09,29.88,21,6,27,0.00
2013-11-4,48,44,34,44,37,30,91,77,61,30.12,29.82,15,3,20,0.19
2013-11-5,44,36,30,36,30,26,93,82,60,30.22,29.99,5,0,6,0.03
2013-11-6,38,34,31,31,28,26,93,81,64,30.13,29.99,8,1,10,0.06
2013-11-7,36,30,25,31,26,22,90,85,80,30.20,30.12,5,0,6,0.02
2013-11-8,44,35,24,39,28,21,91,79,63,30.16,29.57,26,4,35,0.02
2013-11-9,44,41,37,39,33,27,84,74,63,30.16,29.60,10,4,19,0.00
2013-11-10,43,38,32,32,29,25,78,71,61,30.29,30.06,9,2,12,0.00
2013-11-11,38,25,16,32,15,9,80,66,51,30.66,30.08,7,2,10,0.00
2013-11-12,32,20,13,14,10,7,79,65,44,30.71,30.39,4,1,6,0.00
2013-11-13,51,36,22,35,25,13,73,63,49,30.39,29.84,12,4,16,0.00
2013-11-14,52,40,33,39,32,28,80,73,60,29.85,29.73,5,1,6,0.00
2013-11-15,57,42,30,41,34,26,89,74,51,29.82,29.63,8,2,11,0.00
2013-11-16,49,45,42,47,41,35,94,87,70,29.63,29.23,12,3,16,0.07
2013-11-17,45,40,32,42,35,24,93,84,74,29.78,29.29,17,3,22,0.00
2013-11-18,35,29,23,26,21,17,80,71,59,30.21,29.78,14,3,19,0.00
2013-11-19,44,35,22,31,25,17,83,70,56,30.22,29.89,19,6,26,0.00
2013-11-20,44,41,37,33,30,26,85,64,51,30.01,29.86,15,6,20,0.00
2013-11-21,38,32,25,35,27,16,91,83,69,30.45,30.00,9,1,12,0.00
2013-11-22,34,24,14,16,13,5,79,64,39,30.56,30.39,11,2,15,0.00
2013-11-23,18,12,8,6,3,0,79,69,50,30.76,30.56,7,1,10,0.00
2013-11-24,32,20,9,16,10,1,75,64,49,30.64,29.93,14,4,20,0.00
2013-11-25,38,33,28,29,24,17,78,68,61,30.03,29.85,13,4,18,0.00
2013-11-26,30,20,14,20,9,4,70,60,49,30.32,30.02,12,3,23,0.00
2013-11-27,24,18,8,12,8,3,81,67,57,30.32,30.02,9,2,12,0.00
2013-11-28,27,22,13,16,12,5,74,65,59,30.45,30.02,8,1,10,0.00
2013-11-29,32,23,10,22,15,4,84,71,59,30.45,30.09,12,3,16,0.00
2013-11-30,39,32,25,28,24,19,83,72,64,30.12,29.98,6,1,9,0.00